EW1160 Weather Reports


time (UTC)temp
C
wind
direction
speed
KPH
gust
KPH
rain 1hr
cm
rain 24hr
cm
rain mn
cm
humidity
%
barometer
mb
20260510153044 8 20 0.0 0.0 0.00 0.38 0.00 55 1015.5
20260510151525 8 15 0.0 0.0 0.00 0.38 0.00 54 1015.4
20260510150023 8 8 0.0 0.0 0.00 0.38 0.00 56 1015.2
20260510144503 8 22 0.0 0.0 0.00 0.38 0.00 58 1015.2
20260510143108 8 262 0.0 0.0 0.00 0.38 0.00 66 1014.9
20260510141540 7 241 0.0 0.0 0.00 0.38 0.00 67 1014.7
20260510140038 7 251 0.0 0.0 0.00 0.38 0.00 69 1014.5
20260510134519 7 263 0.0 0.0 0.00 0.38 0.00 69 1014.3
20260510133016 7 273 0.0 0.0 0.00 0.38 0.00 73 1014.0
20260510131558 7 239 0.0 0.0 0.00 0.38 0.00 74 1013.9
20260510130112 6 253 0.0 0.0 0.00 0.38 0.00 75 1013.8
20260510124540 6 291 0.0 0.0 0.00 0.38 0.00 75 1013.6
20260510123038 6 346 0.0 0.0 0.00 0.38 0.00 75 1013.5
20260510121526 6 17 0.0 0.0 0.00 0.38 0.00 72 1013.4
20260510120029 6 345 0.0 0.0 0.00 0.38 0.00 76 1013.2
20260510114523 6 243 0.0 0.0 0.00 0.38 0.00 82 1013.0
20260510113021 6 247 0.0 0.0 0.00 0.38 0.00 83 1012.8
20260510111518 6 243 0.0 0.0 0.00 0.38 0.00 82 1012.5
20260510110016 6 231 0.0 0.0 0.00 0.38 0.00 82 1012.4
20260510104514 5 218 0.0 0.0 0.00 0.38 0.00 84 1012.2
20260510103013 5 25 0.0 0.0 0.00 0.38 0.00 86 1012.0
20260510101557 4 22 0.0 0.0 0.00 0.38 0.00 86 1011.8
20260510100058 4 22 0.0 0.0 0.00 0.38 0.00 85 1011.7
20260510094535 4 22 0.0 0.0 0.00 0.38 0.00 84 1011.4
20260510093030 5 22 0.0 0.0 0.00 0.38 0.00 83 1010.9
20260510091513 5 22 0.0 0.0 0.00 0.38 0.00 83 1010.8
20260510090008 4 22 0.0 0.0 0.00 0.38 0.00 82 1010.4
20260510084549 5 22 0.0 0.0 0.00 0.38 0.00 80 1010.1
20260510083047 5 22 0.0 0.0 0.00 0.38 0.00 80 1009.9
20260510081528 5 22 0.0 0.0 0.00 0.38 0.00 79 1009.7
20260510080032 5 22 0.0 0.0 0.00 0.38 0.00 79 1009.4
20260510074509 5 16 0.0 0.0 0.00 0.38 0.00 78 1009.3
20260510073010 5 16 0.0 0.0 0.00 0.38 0.00 80 1009.1
20260510071548 4 51 0.0 0.0 0.00 0.38 0.00 82 1009.1
20260510070048 4 52 0.0 0.0 0.00 0.38 0.00 81 1009.0
20260510064545 5 69 0.0 0.0 0.00 0.38 0.00 80 1008.8
20260510063029 5 90 0.0 0.0 0.00 0.38 0.00 79 1008.7
20260510061526 6 95 0.0 0.0 0.00 0.38 0.00 78 1008.5
20260510060023 6 83 0.0 0.0 0.00 0.38 0.00 78 1008.4
20260510054526 6 154 0.0 0.0 0.00 0.38 0.00 78 1008.4
20260510053037 6 9 0.0 0.0 0.00 0.38 0.00 78 1008.2
20260510051518 6 25 0.0 0.0 0.00 0.38 0.00 79 1008.0
20260510050015 6 8 0.0 0.0 0.00 0.38 0.00 78 1007.6
20260510044556 7 120 0.0 0.0 0.00 0.38 0.00 76 1007.5
20260510043051 7 354 0.0 0.0 0.00 0.38 0.00 73 1007.3
20260510041531 8 37 0.0 0.0 0.00 0.38 0.00 75 1006.9
20260510040028 8 4 0.0 0.0 0.00 0.38 0.00 79 1006.6
20260510034507 8 21 0.0 0.0 0.00 0.38 0.38 79 1006.3
20260510033007 8 27 0.0 0.0 0.00 0.38 0.38 77 1006.1
20260510031547 8 4 0.0 0.0 0.00 0.38 0.38 76 1006.1
20260510030046 9 56 0.0 0.0 0.00 0.38 0.38 75 1005.7
20260510024530 9 18 0.0 0.0 0.00 0.38 0.38 74 1005.6
20260510023027 9 4 0.0 0.0 0.00 0.38 0.38 74 1005.4
20260510021508 8 4 0.0 0.0 0.00 0.38 0.38 76 1004.8
20260510020008 8 29 0.0 0.0 0.00 0.38 0.38 76 1004.6
20260510014554 9 4 0.0 0.0 0.00 0.38 0.38 75 1004.2
20260510013100 10 350 0.0 0.0 0.00 0.38 0.38 71 1003.8
20260510011539 11 68 0.0 0.0 0.00 0.38 0.38 69 1003.2
20260510010044 12 12 0.0 0.0 0.00 0.38 0.38 67 1003.1
20260510004539 12 4 0.0 0.0 0.00 0.38 0.38 69 1002.7
20260510003041 13 257 0.0 0.0 0.00 0.38 0.38 64 1002.2
20260510001537 14 215 0.0 0.0 0.00 0.38 0.38 57 1001.6
20260510000037 15 246 0.0 0.0 0.00 0.38 0.38 57 1001.5
20260509234538 15 335 0.0 0.0 0.00 0.38 0.38 60 1001.3
20260509233036 15 216 0.0 0.0 0.00 0.38 0.38 61 1000.9
20260509231524 15 205 0.0 0.0 0.00 0.38 0.38 61 1000.6
20260509230025 15 220 0.0 0.0 0.00 0.38 0.38 60 1000.3
20260509224523 15 212 0.0 0.0 0.00 0.38 0.38 62 1000.2
20260509223024 15 213 0.0 0.0 0.00 0.38 0.38 62 999.9
20260509221523 15 212 0.0 0.0 0.00 0.38 0.38 62 999.7
20260509220030 16 270 0.0 0.0 0.00 0.38 0.38 61 999.4
20260509214521 16 213 0.0 0.0 0.00 0.38 0.38 57 999.0
20260509213020 16 256 0.0 0.0 0.00 0.38 0.38 58 998.7
20260509211502 16 259 0.0 0.0 0.00 0.38 0.38 60 998.5
20260509210000 17 226 0.0 0.0 0.00 0.38 0.38 65 999.1
20260509204543 16 183 0.0 0.0 0.00 0.38 0.38 73 999.1
20260509203044 16 231 0.0 0.0 0.03 0.38 0.38 76 999.1
20260509201526 15 181 0.0 0.0 0.08 0.38 0.38 83 999.3
20260509200031 13 203 0.0 0.0 0.36 0.38 0.38 87 999.2
20260509194507 12 189 0.0 0.0 0.38 0.38 0.38 89 999.5
20260509193006 11 204 0.0 0.0 0.36 0.36 0.36 85 999.9
20260509191607 11 253 0.0 0.0 0.30 0.30 0.30 80 999.4
20260509190048 16 186 0.0 0.0 0.03 0.03 0.03 72 998.5
20260509184548 17 181 0.0 0.0 0.00 0.00 0.00 65 998.4
20260509183039 17 179 0.0 0.0 0.00 0.00 0.00 64 998.5
20260509181528 17 191 0.0 0.0 0.00 0.00 0.00 65 998.6
20260509180010 17 199 0.0 0.0 0.00 0.00 0.00 63 998.8
20260509174521 17 174 0.0 0.0 0.00 0.00 0.00 65 998.6
20260509173054 16 224 0.0 0.0 0.00 0.00 0.00 68 999.1
20260509171547 16 154 0.0 0.0 0.00 0.00 0.00 70 999.4
20260509170032 16 179 0.0 0.0 0.00 0.00 0.00 69 999.8
20260509164528 17 169 0.0 0.0 0.00 0.00 0.00 70 999.3
20260509163010 17 193 0.0 0.0 0.00 0.00 0.00 73 999.5
20260509161506 16 152 0.0 0.0 0.00 0.00 0.00 75 999.6
20260509160047 16 194 0.0 0.0 0.00 0.00 0.00 76 999.9
20260509154544 15 169 0.0 0.0 0.00 0.00 0.00 78 1000.3